星链-34149 (STARLINK-34149)

导读

STARLINK-34149是美国SpaceX公司星链(Starlink)星座的一员,于2025年5月24日发射入轨,是一款低轨宽带通信卫星。作为星链大规模组网计划的组成部分,它延续了星链量产卫星的设计,采用平板构型与太阳能供电,搭载Ku/Ka波段通信载荷,配备氪工质霍尔推进器,具备自主避撞能力,服务于全球高速卫星互联网接入,设计寿命约5-7年,退役后将受控离轨坠入大气层焚毁。

Basic Information
目录编号:
64140
目录名称:
STARLINK-34149
国际标识:
2025-111T
轨道中心:
EARTH
卫星名称:
星链-34149
卫星全名:
星链-34149 (STARLINK-34149)
卫星状态:
在轨 (已飞行469 天)
发射日期:
2025-05-24 UTC
国别 :
美国 (US)
星等 :
--
Orbit Information
数据来源 国际轨道数据
星历时间: 2026-09-05T10:36:32+0800
9小时前
查看轨道信息
半长轴: 6861.183km
偏心率: 0.000142
轨道倾角: 43.002°
近地点辐角 269.075°
升交点赤经 144.568°
平近点角 90.994°
近地点: 482.071km
远地点: 484.021km
周期: 94.267分钟
每日圈数: 15.275812
Detailed Information
固有亮度:
5
最大亮度:
2.5
卫星平台:
Starlink V1.0
覆盖范围:
全球
运营商:
太空探索技术公司
运营商所在国:
美国
制造商(研发单位):
太空探索技术公司
制造商所在国:
美国
使用方式:
暂无
Satellite Introduction
Starlink 计划是 SpaceX 推出的全球卫星互联网项目,通过发射低轨道卫星,为全球尤其是偏远地区提供高速、低延迟的互联网服务。自 2019 年起,Starlink 已部署数千颗卫星,旨在缩小全球数字鸿沟,推动互联网普及。该项目还为军事、航空等行业提供通信支持,带来广泛经济效益。
2D Orbit Map
3D Orbit Map
Orbit Altitude Analysis Chart
Orbit Inclination Analysis Chart
Orbit Comprehensive Analysis Chart
View Comprehensive Chart
Conjunction Data List
Event ID Objects TCA Miss Dist (km) Collision Risk Probability Collision Risk Index (CRI) Action
CDM_260907-175605-774506-414021
2026-09-07T
17:56:15+0000
0.159 km
中距离
7.949318E-4 高风险 0.93
CDM_260907-162205-774506-414021
2026-09-07T
16:22:06+0000
1.663 km
极远距离
3.133492E-6 低风险 0.45